www.pogodaiklimat.ru

Погода и климат >> Архив погоды >> Норвегия >> Юввассу


ПОГОДА в Юввассу

  • Прогноз погоды в Юввассу
  • Монитор погоды в Юввассу

АРХИВ ПОГОДЫ в Юввассу

Время (UTC), дата Ветер
(напр.,м/с)
 
Видим.   Явления Облачность Т
(С)
Тd
(С)
f
(%)
Тe
(С)
Тes
(С)
Комфортность P
(гПа)
Po
(гПа)
Тmin
(С)
Tmax
(С)
R
(мм)
R24
(мм)
S
(см)
07 12.06 ЮВ 11-14
{17}
н/о н/о +0.4 -6 -6 1023.8 812.9
08 12.06 ЮВ 14-14
{18}
н/о н/о 0.0 -8 -8 1023.6 812.5
09 12.06 ЮВ 14-14
{17}
н/о н/о -0.2 -8 -8 1023.8 812.5
10 12.06 ЮВ 10-17
{17}
н/о н/о +0.2 -6 -6 1023.8 812.8
11 12.06 ЮВ 6-11
{11}
н/о н/о +0.5 -4 -4 1023.2 812.5
12 12.06 ЮВ 6-8
{18}
н/о н/о +0.9 -4 -4 1022.1 811.9
13 12.06 Ю 7-9
{9}
н/о н/о +1.6 -3 -3 1020.8 811.3
14 12.06 Ю 8-9
{10}
н/о н/о +1.6 -4 -4 1020.1 810.8
15 12.06 ЮВ 9-9
{10}
н/о н/о +1.0 -5 -5 1020.2 810.5
16 12.06 Ю 8-10
{11}
н/о н/о +1.6 -4 -4 1019.3 810.2
17 12.06 Ю 8-9
{11}
н/о н/о +2.3 -3 -3 1018.3 809.6
18 12.06 Ю 7-9
{11}
н/о н/о +3.1 -1 -1 1016.6 809.0 -0.3 +3.3
19 12.06 ЮВ 5-7
{7}
н/о н/о +1.4 -3 -3 1017.6 808.7
20 12.06 ЮВ 6-7
{7}
н/о н/о +1.8 -3 -3 1016.4 808.0
21 12.06 ЮВ 6-6
{6}
н/о н/о +1.3 -3 -3 1016.5 807.7
22 12.06 Ю 7-8
{9}
н/о н/о +1.9 -3 -3 1014.9 807.0
23 12.06 ЮВ 6-9
{9}
н/о н/о +1.5 -3 -3 1014.8 806.6
00 13.06 Ю 6-6
{9}
н/о н/о +1.8 -3 -3 1013.7 805.8
01 13.06 ЮВ 6-8
{8}
н/о н/о +2.0 -2 -2 1012.8 805.2
02 13.06 ЮВ 7-7
{8}
н/о н/о +1.9 -3 -3 1011.7 804.3
03 13.06 ЮВ 7-7
{9}
н/о н/о +3.3 -1 -1 1009.6 803.5
04 13.06 ЮВ 7-8
{8}
н/о н/о +3.0 -2 -2 1008.8 802.7
05 13.06 ЮВ 9-8
{13}
н/о н/о +1.6 -4 -4 1008.8 801.7
06 13.06 ЮВ 13-15
{15}
н/о н/о +0.1 -7 -7 1008.7 800.7 0.0 +3.7
07 13.06 ЮВ 11-15
{17}
н/о н/о 0.0 -7 -7 1008.9 800.8
08 13.06 ЮВ 11-14
{14}
н/о н/о +1.1 -5 -5 1008.4 801.1
09 13.06 Ю 11-13
{16}
н/о н/о +2.8 -3 -3 1006.6 800.8
10 13.06 Ю 9-12
{16}
н/о н/о +3.3 -2 -2 1006.9 801.3
11 13.06 Ю 10-13
{14}
н/о н/о +4.1 -1 -1 1006.5 801.5
12 13.06 Ю 11-11
{17}
н/о н/о +4.4 -1 -1 1006.7 801.9
13 13.06 Ю 10-12
{13}
н/о н/о +5.5 +1 +1 1006.8 802.8
14 13.06 Ю 9-11
{12}
н/о н/о +5.3 +1 +1 1007.8 803.3
15 13.06 ЮВ 6-12
{12}
н/о н/о +4.5 +1 +1 1009.6 804.3
16 13.06 ЮВ 9-8
{11}
н/о н/о +4.5 -0 -0 1009.6 804.4
17 13.06 ЮВ 9-10
{13}
н/о н/о +4.8 0 0 1009.7 804.7
18 13.06 Ю 11-10
{13}
н/о н/о +4.6 -1 -1 1010.5 805.1 0.0 +6.0
19 13.06 Ю 10-15
{16}
н/о н/о +3.7 -2 -2 1012.0 805.7
20 13.06 Ю 10-13
{13}
н/о н/о +3.2 -2 -2 1012.6 805.9
21 13.06 Ю 9-11
{12}
н/о н/о +2.8 -3 -3 1014.0 806.7
22 13.06 Ю 8-11
{12}
н/о н/о +2.5 -3 -3 1014.8 807.1
23 13.06 Ю 5-12
{12}
н/о н/о +1.7 -2 -2 1016.2 807.7
00 14.06 Ю 9-7
{16}
н/о н/о +1.7 -4 -4 1015.8 807.4
01 14.06 Ю 12-12
{14}
н/о н/о +1.9 -5 -5 1015.4 807.1
02 14.06 Ю 14-13
{16}
н/о н/о +1.7 -5 -5 1015.0 806.8
03 14.06 Ю 11-15
{15}
н/о н/о +1.6 -5 -5 1016.0 807.5
04 14.06 Ю 11-13
{14}
н/о н/о +1.8 -4 -4 1016.0 807.6
05 14.06 Ю 5-14
{14}
н/о н/о +2.2 -2 -2 1016.7 808.5
06 14.06 Ю 3-6
{16}
н/о н/о +3.2 +1 +1 1016.4 808.8 +1.4 +4.6
07 14.06 Ю 7-6
{10}
н/о н/о +2.9 -2 -2 1017.0 809.2
08 14.06 Ю 3-9
{9}
н/о н/о +3.5 +1 +1 1017.5 809.9
09 14.06 Ю 6-3
{9}
н/о н/о +4.4 +1 +1 1016.9 810.1
10 14.06 З 4-8
{8}
н/о н/о +6.2 +4 +4 1015.9 810.4
11 14.06 ЮВ 4-5
{6}
н/о н/о +7.4 +5 +5 1015.2 810.4
12 14.06 Ю 5-6
{10}
н/о н/о +8.6 +6 +6 1014.4 810.5
13 14.06 Ю 6-7
{11}
н/о н/о +7.9 +5 +5 1014.8 810.5
14 14.06 Ю 3-8
{8}
н/о н/о +8.1 +7 +7 1014.5 810.5
15 14.06 Ю 6-5
{8}
н/о н/о +8.2 +5 +5 1014.2 810.4
16 14.06 Ю 5-7
{7}
н/о н/о +7.6 +5 +5 1014.9 810.5
17 14.06 Ю 6-7
{9}
н/о н/о +7.5 +5 +5 1014.9 810.4
18 14.06 Ю 1-7
{11}
н/о н/о +7.1 +8 +8 1015.2 810.5 +2.5 +9.0
19 14.06 СВ 1-5
{5}
н/о н/о +6.2 +7 +7 1016.2 810.6
20 14.06 штиль 0-3
{3}
н/о н/о +6.0 +7 +7 1016.6 810.8
21 14.06 ЮВ 2-1
{4}
н/о н/о +5.1 +4 +4 1017.6 811.1
22 14.06 В 1-4
{4}
н/о н/о +4.8 +5 +5 1017.9 811.1
23 14.06 штиль 0-1
{1}
н/о н/о +3.9 +5 +5 1018.8 811.2
00 15.06 штиль 0
{5}
н/о н/о +4.1 +5 +5 1018.7 811.3
01 15.06 штиль 0-2
{2}
н/о н/о +3.6 +4 +4 1018.9 811.2
02 15.06 штиль 0-1
{1}
н/о н/о +3.2 +4 +4 1019.2 811.1
03 15.06 штиль 0-1
{1}
н/о н/о +4.3 +5 +5 1018.5 811.2
04 15.06 СВ 1-1
{1}
н/о н/о +4.8 +5 +5 1018.2 811.4
05 15.06 ЮВ 2-1
{3}
н/о н/о +4.7 +4 +4 1018.2 811.3
06 15.06 ЮВ 3-2
{5}
н/о н/о +5.1 +3 +3 1017.9 811.3 +3.0 +7.1
07 15.06 ЮВ 4-4
{7}
н/о н/о +5.9 +4 +4 1017.6 811.6
08 15.06 В 3-5
{6}
н/о н/о +7.4 +6 +6 1017.0 811.9
09 15.06 В 4-6
{8}
н/о н/о +6.6 +4 +4 1017.6 812.1
10 15.06 ЮВ 6-8
{9}
н/о н/о +8.5 +6 +6 1016.4 812.2
11 15.06 ЮВ 6-8
{9}
н/о н/о +9.1 +7 +7 1015.3 811.9
12 15.06 ЮВ 6-8
{9}
н/о н/о +9.8 +7 +7 1014.9 812.0
13 15.06 ЮВ 6-9
{10}
н/о н/о +10.4 +8 +8 1014.4 811.8
14 15.06 ЮВ 7-9
{10}
н/о н/о +10.9 +9 +9 1013.3 811.4
15 15.06 ЮВ 8-9
{12}
н/о н/о +11.6 +9 +9 1012.8 811.3
16 15.06 ЮВ 6-10
{10}
н/о н/о +10.9 +9 +9 1013.1 811.2
17 15.06 ЮВ 5-8
{9}
н/о н/о +10.7 +9 +9 1012.9 810.8
18 15.06 ЮВ 5-7
{12}
н/о н/о +10.4 +9 +9 1012.7 810.6 +5.1 +12.1
19 15.06 ЮВ 6-7
{8}
н/о н/о +9.9 +8 +8 1012.8 810.3
20 15.06 ЮВ 5-6
{8}
н/о н/о +9.0 +7 +7 1013.5 810.3
21 15.06 Ю 6-7
{8}
н/о н/о +8.2 +5 +5 1014.0 810.2
22 15.06 Ю 7-8
{9}
н/о н/о +7.3 +4 +4 1014.3 809.9
23 15.06 ЮВ 4-8
{8}
н/о н/о +6.7 +4 +4 1014.6 809.7
00 16.06 Ю 5-4
{9}
н/о н/о +5.7 +3 +3 1014.9 809.3
01 16.06 Ю 6-7
{9}
н/о н/о +5.6 +2 +2 1014.4 809.0
02 16.06 Ю 3-7
{7}
н/о н/о +5.6 +4 +4 1014.1 808.7
03 16.06 Ю 7-8
{9}
н/о н/о +6.5 +3 +3 1013.0 808.3
04 16.06 Ю 8-9
{11}
н/о н/о +6.7 +3 +3 1012.6 808.1
05 16.06 Ю 5-7
{11}
н/о н/о +7.0 +4 +4 1012.2 808.0
06 16.06 ЮВ 5-6
{11}
н/о н/о +6.6 +4 +4 1012.4 807.9 +4.8 +10.5
07 16.06 Ю 8-9
{13}
н/о н/о +6.3 +2 +2 1012.5 807.8
08 16.06 Ю 11-11
{14}
н/о н/о +6.4 +2 +2 1011.8 807.3
09 16.06 ЮВ 6-12
{12}
н/о н/о +5.7 +2 +2 1012.8 807.6
10 16.06 Ю 8-9
{12}
н/о н/о +5.8 +2 +2 1012.3 807.3
11 16.06 Ю 10-11
{13}
н/о н/о +6.1 +2 +2 1011.7 807.0
12 16.06 Ю 9-13
{14}
н/о н/о +8.0 +4 +4 1010.1 807.0
13 16.06 Ю 7-11
{11}
н/о н/о +6.9 +4 +4 1011.6 807.4
14 16.06 Ю 4-6
{6}
н/о н/о +6.7 +4 +4 1011.8 807.4
15 16.06 Ю 4-5
{5}
н/о н/о +6.5 +4 +4 1011.7 807.3
16 16.06 ЮВ 3-5
{5}
н/о н/о +5.9 +4 +4 1012.2 807.3
17 16.06 Ю 1-3
{3}
н/о н/о +5.9 +6 +6 1012.1 807.2
18 16.06 В 2-1
{11}
н/о н/о +5.4 +4 +4 1012.4 807.1 +5.4 +8.4
19 16.06 В 1-2
{3}
н/о н/о +5.2 +6 +6 1012.2 806.9
20 16.06 штиль 0-2
{3}
н/о н/о +5.3 +6 +6 1012.4 807.0
21 16.06 С 1-2
{3}
н/о н/о +4.5 +5 +5 1012.5 806.7
22 16.06 Ю 2-4
{4}
н/о н/о +4.0 +3 +3 1013.0 806.7
23 16.06 штиль 0-2
{3}
н/о н/о +3.6 +4 +4 1013.3 806.7
00 17.06 СВ 1-2
{4}
н/о н/о +3.2 +3 +3 1013.6 806.7
01 17.06 С 1-1
{2}
н/о н/о +2.8 +3 +3 1013.8 806.6
02 17.06 С 2-2
{3}
н/о н/о +2.1 +1 +1 1014.1 806.4
03 17.06 СВ 1-4
{5}
н/о н/о +1.9 +2 +2 1014.1 806.2
04 17.06 З 3-6
{6}
н/о н/о +1.0 -2 -2 1014.8 806.2
05 17.06 ЮВ 2-4
{4}
н/о н/о +1.3 -0 -0 1014.4 806.0
06 17.06 ЮВ 2-4
{6}
н/о н/о +1.7 0 0 1014.1 806.0 +1.0 +5.7
07 17.06 В 4-3
{5}
н/о н/о +1.9 -1 -1 1013.7 805.9
08 17.06 В 5-4
{8}
н/о н/о +3.3 -0 -0 1013.1 806.2
09 17.06 В 3-6
{8}
н/о н/о +3.6 +1 +1 1012.6 806.1
10 17.06 ЮВ 3-6
{7}
н/о н/о +5.7 +4 +4 1011.0 806.2
11 17.06 ЮЗ 3-7
{9}
н/о н/о +6.8 +5 +5 1010.4 806.4
12 17.06 ЮЗ 6-5
{9}
н/о н/о +7.4 +4 +4 1010.0 806.4
13 17.06 Ю 5-9
{10}
н/о н/о +6.7 +4 +4 1010.2 806.2
14 17.06 Ю 6-12
{13}
н/о н/о +7.8 +5 +5 1009.3 805.9
15 17.06 Ю 9-12
{13}
н/о н/о +5.3 +1 +1 1010.5 805.5
16 17.06 Ю 6-9
{11}
н/о н/о +6.3 +3 +3 1009.1 805.1
17 17.06 Ю 7-12
{12}
н/о н/о +5.1 +1 +1 1009.9 804.9
18 17.06 Ю 4-7
{14}
н/о н/о +5.1 +3 +3 1009.8 804.8 +1.5 +7.8
19 17.06 Ю 10-6
{16}
н/о н/о +4.5 -1 -1 1009.2 804.0
20 17.06 Ю 8-15
{18}
н/о н/о +4.1 -0 -0 1009.5 804.0
21 17.06 Ю 14-13
{18}
н/о н/о +3.3 -3 -3 1009.3 803.3
22 17.06 Ю 15-18
{22}
н/о н/о +3.2 -3 -3 1008.5 802.6
23 17.06 Ю 8-18
{19}
н/о н/о +1.9 -3 -3 1010.5 803.4
00 18.06 Ю 15-11
{22}
н/о н/о +2.0 -5 -5 1009.8 802.9
01 18.06 Ю 18-22
{24}
н/о н/о +1.6 -6 -6 1008.7 801.7
02 18.06 ЮЗ 14-24
{24}
н/о н/о +0.8 -7 -7 1010.4 802.6
03 18.06 ЮЗ 9-18
{22}
н/о н/о +1.4 -4 -4 1010.4 802.9
04 18.06 Ю 8-13
{13}
н/о н/о +0.3 -5 -5 1011.0 802.7
05 18.06 Ю 16-12
{22}
н/о н/о +1.0 -7 -7 1009.2 801.7
06 18.06 ЮЗ 10-21
{24}
н/о н/о +1.0 -5 -5 1010.4 802.7 +0.2 +5.1
07 18.06 ЮЗ 12-14
{15}
н/о н/о +1.2 -5 -5 1010.4 802.8
08 18.06 ЮЗ 12-15
{16}
н/о н/о +2.2 -4 -4 1009.1 802.5
09 18.06 Ю 13-15
{18}
н/о н/о +2.6 -4 -4 1008.2 802.0
10 18.06 ЮЗ 8-16
{16}
н/о н/о +3.9 -1 -1 1008.2 802.8
11 18.06 Ю 6-11
{11}
н/о н/о +4.1 0 0 1008.5 803.0
12 18.06 Ю 5-8
{18}
н/о н/о +4.3 +1 +1 1008.4 803.2
13 18.06 Ю 8-10
{14}
н/о н/о +3.7 -1 -1 1008.4 802.9
14 18.06 ЮЗ 9-11
{13}
н/о н/о +3.3 -2 -2 1008.6 802.8
15 18.06 Ю 7-11
{11}
н/о н/о +4.4 0 0 1007.4 802.6
16 18.06 Ю 9-12
{14}
н/о н/о +4.8 0 0 1006.6 802.1
17 18.06 ЮЗ 12-11
{16}
н/о н/о +2.1 -4 -4 1008.1 801.6
18 18.06 Ю 9-15
{16}
н/о н/о +1.0 -5 -5 1009.3 801.8 +0.9 +5.2
19 18.06 ЮЗ 12-17
{19}
н/о н/о +0.1 -7 -7 1009.9 801.7
20 18.06 ЮЗ 14-14
{22}
н/о н/о +0.7 -7 -7 1009.3 801.6
21 18.06 ЮЗ 13-20
{23}
н/о н/о +0.9 -6 -6 1009.2 801.7
22 18.06 ЮЗ 13-19
{20}
н/о н/о +0.9 -6 -6 1009.3 801.7
23 18.06 Ю 6-20
{20}
н/о н/о +0.7 -4 -4 1010.1 802.2
00 19.06 ЮВ 2-11
{23}
н/о н/о 0.0 -2 -2 1010.7 802.3
01 19.06 Ю 3-7
{9}
н/о н/о +0.2 -3 -3 1010.6 802.3
02 19.06 Ю 2-6
{9}
н/о н/о -0.2 -2 -2 1010.9 802.3
03 19.06 ЮЗ 1-5
{6}
н/о н/о -0.2 -1 -1 1011.1 802.4
05 19.06 СЗ 2-2
{8}
н/о н/о -0.5 -3 -3 1011.2 802.4
06 19.06 штиль 0-2
{9}
н/о н/о -0.3 0 0 1011.7 802.8 -1.0 +2.0
07 19.06 З 2-1
{4}
н/о н/о -0.4 -2 -2 1011.9 803.0
08 19.06 Ю 2-4
{5}
н/о н/о +1.2 -1 -1 1011.0 803.2

 

Местоположение метеостанции Юввассу (Норвегия): широта 61.68 долгота 8.37 высота над уровнем моря 1894 м.

В архиве по умолчанию представлена погода в Юввассу за последнюю неделю. Архивные данные за месяц целиком и за предыдущие месяцы, начиная с января 2011 года, Вы можете получить, выбрав интересующий диапазон дат из раскрывающегося списка и нажав кнопку "Ввод!".


*Определитесь, кто Вы:
робот инопланетянин человек

Внимание! Время в таблицах - всемирное. Для получения местного времени необходимо прибавить поправку, которая равна 1 ч.

Смотрите также архив погоды в соседних городах и на ближайших метеорологических станциях:

Погода в Сонгфельсхутте (Норвегия) (23 км)
Погода в Брате (Норвегия) (36 км)
Погода в Гротли (Норвегия) (53 км)
Погода в Бейтостолене (Норвегия) (56 км)
Погода в Скабу (Норвегия) (57 км)
Погода в Филефеле (Норвегия) (57 км)
Погода в Домбасе (Норвегия) (59 км)
Погода в Бьорли (Норвегия) (65 км)
Погода в Фокстугу (Норвегия) (68 км)
Погода в Локен и Волбу (Норвегия) (72 км)

Пояснения к столбцам:

Ветер - указаны скорость ветра в м/с - средняя за 10 мин, порывы в срок и между сроками (в фигурных скобках) и направление, откуда дует ветер: С - северный, СВ - северо-восточный, В - восточный, ЮВ - юго-восточный, Ю - южный, ЮЗ - юго-западный, З - западный, СЗ - северо-западный.
Видимость - горизонтальная дальность видимости в метрах или километрах. При видимости от 1 до 10 км при отсутствии осадков обычно наблюдается дымка, при ухудшении видимости до 1 км и менее - туман. В сухую погоду видимость может ухудшаться дымом, пылью или мглою.
Явления - указаны атмосферные явления, наблюдавшиеся в срок или в последний час перед сроком; фигурными скобками обозначены явления, наблюдавшиеся между сроками (за 1-3 часа до срока); квадратными скобками обозначены град или гололедные отложения с указанием их диаметра в мм.
Облачность - указаны через наклонную черту общая и нижняя облачность в баллах и высота нижней границы облаков в метрах; квадратными скобками обозначены формы облаков: Ci - перистые, Cs - перисто-слоистые, Cc - перисто-кучевые, Ac - высококучевые, As - высокослоистые, Sc - слоисто-кучевые, Ns - слоисто-дождевые, Cu - кучевые, Cb - кучево-дождевые. Подробнее классификацию облаков см. в Атласе облаков (PDF).
T - Температура воздуха - температура, измеренная на высоте 2 м над землей.
Td - Температура точки росы - температура, при понижении до которой содержащийся в воздухе водяной пар достигнет насыщения.
f - Относительная влажность воздуха - влажноcть воздуха, измеренная на высоте 2 м над землей.
Te - Эффективная температура - температура, которую ощущает одетый по сезону человек в тени. Характеристика душности погоды. При расчете учитывается влияние влажности воздуха и скорости ветра на теплоощущения человека.
Tes - Эффективная температура на солнце - температура, которую ощущает человек, с поправкой на солнечный нагрев. Характеристика знойности погоды. Зависит от высоты солнца над горизонтом, облачности и скорости ветра. Ночью, в пасмурную погоду, а также при ветре 12 м/с и более поправка равна нулю.
P - Атмосферное давление - приведенное к уровню моря атмосферное давление.
Po - Атмосферное давление - измеренное на уровне метеостанции атмосферное давление.
Tmin - Минимальная температура - минимум температуры воздуха на высоте 2 м над землей.
Tmax - Максимальная температура - максимум температуры воздуха на высоте 2 м над землей.
R - Количество осадков - Количество выпавших осадков за период времени, мм. При наведении курсора мыши на число - период времени, за который выпало указанное количество осадков.
R24 - Количество осадков - Количество выпавших осадков за 24 часа, мм.
S - Снежный покров - Высота снежного покрова, см. При наведении курсора мыши на число - состояние снежного покрова и степень покрытия местности в баллах.